星链-34506 (STARLINK-34506)

导读

STARLINK-34506是美国太空探索技术公司SpaceX星链星座的组网卫星,于2025年6月17日成功发射。星链星座旨在构建全球覆盖的卫星互联网星座,为全球偏远地区、灾害现场等场景提供低延迟高速网络接入服务,该卫星入轨后将进一步扩充星链星座的组网规模,提升星座的服务覆盖能力与通信容量。

基本信息
目录编号:
64432
目录名称:
STARLINK-34506
国际标识:
2025-129W
轨道中心:
EARTH
卫星名称:
星链-34506
卫星全名:
星链-34506 (STARLINK-34506)
卫星状态:
在轨 (已飞行361 天)
发射日期:
2025-06-17 UTC
国别 :
美国 (US)
星等 :
--
轨道信息
数据来源 国际轨道数据 AOE轨道数据
星历时间 2026-06-13T20:05:12+0800
9小时前
查看轨道信息
2026-06-14T00:00:00+0800
5小时前
查看轨道信息
半长轴 6950.177km 6950.213km
偏心率 0.0003938 0.000416
轨道倾角 70.000° 69.995°
近地点辐角 268.227° 274.427°
升交点赤经 192.698° 192.281°
平近点角 91.844° 244.919°
近地点 569.303km 569.184km
远地点 574.777km 574.968km
周期 96.107分钟 96.107分钟
每日圈数 14.983354 14.983236
详细信息
固有亮度:
5
最大亮度:
2.5
卫星平台:
Starlink V1.0
覆盖范围:
全球
运营商:
太空探索技术公司
运营商所在国:
美国
制造商(研发单位):
太空探索技术公司
制造商所在国:
美国
使用方式:
暂无
卫星简介
Starlink 计划是 SpaceX 推出的全球卫星互联网项目,通过发射低轨道卫星,为全球尤其是偏远地区提供高速、低延迟的互联网服务。自 2019 年起,Starlink 已部署数千颗卫星,旨在缩小全球数字鸿沟,推动互联网普及。该项目还为军事、航空等行业提供通信支持,带来广泛经济效益。
2D轨道图
3D轨道图
轨道高度分析图
轨道倾角分析图
轨道综合分析图
查看轨道综合分析图